Temperature
19 19 19 19 19 19 19 19 19 19 19 19 19 19 19 19 19 19 19 19 19 19 19 19 18 18 18 18 18 18 18 18 18 18 18 18 18 18 18 18 18 18 18
19 19 19 19 19 19 19 19 19 19 19 19 19 19 19 19 19 19 19 19 19 19 19 19 18 18 18 18 18 18 18 18 18 18 18 18 18 18 18 18 18 18 18
19 19 19 19 19 19 19 19 19 19 19 19 19 19 19 19 19 19 19 19 19 18 19 19 18 19 18 18 18 18 18 18 18 18 18 18 18 18 18 18 18 18 18
19 19 19 19 19 19 19 19 19 19 19 19 19 19 19 19 19 19 19 19 19 18 18 18 18 18 18 18 18 18 18 18 18 18 18 18 18 18 18 18 18 18 18
19 19 19 19 19 19 19 19 19 19 19 19 19 19 19 19 19 19 19 19 19 19 18 18 18 18 18 18 18 18 18 18 18 18 18 18 18 18 18 18 18 18 18
20 19 19 19 19 19 19 19 19 19 19 19 19 19 19 19 19 19 19 19 19 19 19 18 18 18 18 18 18 18 18 18 18 18 18 18 18 18 18 18 18 18 18
20 20 19 19 19 19 19 19 19 19 19 19 19 19 19 19 19 19 18 18 19 19 19 18 18 18 18 18 18 18 18 18 18 18 18 18 18 18 18 18 18 18 17
20 20 19 19 19 19 19 19 19 19 19 19 19 19 19 19 19 18 18 19 19 19 18 18 18 18 18 18 18 18 18 18 18 18 18 18 18 18 18 18 18 18 18
20 20 20 19 19 19 19 19 19 19 19 19 19 19 19 19 19 19 19 19 19 19 18 18 18 18 18 18 18 18 18 18 18 18 18 18 18 18 18 18 18 17 17
20 20 20 19 19 19 19 19 19 19 19 19 19 19 19 19 18 18 19 19 19 19 18 18 18 18 18 18 18 18 18 18 18 18 18 18 18 18 18 18 18 17 17
20 19 20 19 19 19 19 19 19 19 19 19 18 18 18 18 18 18 18 19 19 18 18 18 18 18 18 18 18 18 18 18 18 18 18 18 18 18 18 18 17 17 17
20 19 19 19 19 19 19 19 19 19 19 19 19 18 18 18 18 18 18 18 18 18 18 18 18 18 18 18 18 18 18 18 18 18 18 18 18 18 18 17 17 17 17
20 20 20 19 19 19 19 19 19 19 19 19 18 18 18 18 18 18 18 18 18 18 18 18 18 18 18 18 18 18 18 18 18 18 18 18 18 18 18 17 17 17 17
20 20 20 19 19 19 19 19 19 19 19 19 18 18 18 18 18 18 18 18 18 18 18 18 18 18 18 18 18 18 18 18 18 18 18 18 18 17 17 17 17 17 17
20 20 20 19 19 19 19 19 19 19 19 19 18 18 18 18 18 18 18 18 18 18 18 18 18 18 18 18 18 18 18 18 18 18 18 18 17 17 17 17 17 17 17
20 20 20 20 19 19 19 19 19 19 19 19 18 18 18 18 18 18 18 18 18 18 18 18 18 18 18 18 18 18 18 18 18 18 18 18 17 17 17 17 17 17 17
20 20 20 20 20 19 19 19 19 19 19 19 19 18 18 18 18 18 18 18 18 18 18 18 18 18 18 18 18 18 18 18 18 18 17 17 17 17 17 17 17 17 17
21 20 20 20 20 19 19 19 19 19 19 19 19 19 18 18 18 18 18 18 18 18 18 18 18 18 18 18 18 18 18 18 18 17 17 17 17 17 17 17 17 17 17
21 20 20 20 20 20 19 19 19 19 19 19 19 19 18 18 18 18 18 18 18 18 18 18 18 18 18 18 18 18 18 17 17 17 17 17 17 17 17 17 17 17 17
21 21 20 20 20 20 19 19 19 19 19 19 19 19 19 19 18 18 18 18 18 18 18 18 18 18 18 18 18 18 17 17 17 17 17 17 17 17 17 17 17 17 17
21 20 20 20 20 20 20 19 19 19 19 19 19 19 19 18 18 18 18 18 18 18 18 18 18 18 18 18 18 17 17 17 17 17 17 17 17 17 17 17 17 17 17
21 21 20 20 20 20 20 20 19 19 19 19 19 19 18 19 19 19 19 18 18 18 18 18 18 18 18 18 18 17 17 17 17 17 17 17 17 17 17 17 17 17 17
21 21 21 20 20 20 20 20 19 19 19 19 19 19 19 19 19 19 19 19 18 18 18 18 18 18 18 18 18 18 17 17 17 17 17 17 17 17 17 17 17 17 16
22 21 21 21 20 20 20 20 20 19 19 19 19 19 19 18 18 18 18 18 18 18 18 18 18 18 18 18 18 18 17 17 17 17 17 17 17 17 17 17 17 16 16
22 22 21 21 21 20 20 20 20 20 20 19 19 19 19 18 18 18 18 18 18 18 18 18 18 18 18 18 18 18 17 17 17 17 17 17 17 17 17 16 16 16 16
22 22 21 21 21 20 20 20 20 20 19 19 19 19 19 19 18 18 18 18 18 18 18 18 18 18 18 18 17 17 17 17 17 17 17 17 17 17 16 16 16 16 16
Wind_Speed
2 3 9 10 11 12 13 13 13 13 14 15 15 16 17 17 18 18 18 19 19 19 19 18 18 18 18 17 17 17 16 16 16 16 16 16 15 15 15 15 14 13 15
5 7 10 11 12 12 12 13 13 14 14 15 15 16 16 17 17 17 17 18 18 18 18 18 18 17 16 16 16 16 16 16 16 15 15 14 14 14 15 14 14 13 14
7 8 10 11 12 12 13 13 14 14 14 15 15 16 17 17 16 16 17 17 18 18 17 17 17 16 16 15 15 15 15 15 15 14 13 11 12 13 14 14 14 14 14
8 8 10 12 12 13 14 14 14 14 15 15 15 16 16 16 16 16 16 17 17 17 17 16 16 16 15 14 14 13 13 13 13 12 9 9 10 12 14 14 13 13 13
7 8 11 13 13 14 14 15 15 15 15 15 15 16 16 16 16 16 16 16 16 16 16 15 15 15 14 13 12 12 11 11 10 9 8 9 9 12 13 13 13 13 12
7 9 12 13 13 13 14 15 15 15 16 15 15 15 16 16 15 15 15 15 15 15 14 14 14 13 13 12 12 11 10 9 8 7 8 9 10 12 12 12 12 11 11
7 8 11 13 13 13 14 14 14 15 15 15 15 15 15 15 14 14 13 13 13 13 13 13 12 12 11 11 10 9 8 8 7 7 8 9 10 11 12 12 11 10 10
8 7 10 13 13 12 13 14 14 14 14 14 14 14 14 13 13 12 12 11 11 12 12 12 12 11 10 10 9 8 7 7 8 8 8 9 10 11 11 11 11 10 10
9 7 7 9 11 11 12 12 12 13 13 13 13 13 12 12 12 11 10 10 11 11 12 11 11 10 9 9 8 7 6 6 7 7 8 8 11 11 11 10 11 10 10
7 7 6 7 8 8 9 11 11 12 12 11 11 12 12 11 11 10 9 10 11 11 11 10 10 9 8 7 6 5 5 6 6 7 7 8 11 11 11 10 10 10 10
8 5 6 6 6 7 8 9 10 10 10 10 10 11 10 8 8 8 9 9 10 10 10 9 9 9 7 6 5 5 4 5 6 6 7 9 11 11 11 11 10 10 10
8 6 5 6 6 6 7 7 7 7 7 7 7 7 6 6 6 7 8 8 9 9 8 8 8 7 5 4 4 4 3 5 5 7 8 11 12 12 11 11 11 11 11
9 7 5 5 5 5 5 6 5 5 5 5 6 6 6 5 5 5 4 5 6 6 4 4 4 4 4 4 4 4 5 5 5 6 9 12 12 13 12 12 12 12 11
8 7 6 5 5 5 5 5 4 4 4 4 5 7 6 3 3 3 3 3 4 4 3 3 3 3 4 5 5 4 5 4 5 5 8 11 12 13 12 12 12 12 12
8 7 6 6 5 5 4 3 4 3 4 5 5 6 7 4 3 3 3 3 4 4 4 3 3 3 3 3 4 4 4 4 5 6 7 10 11 12 12 12 12 12 12
8 7 6 6 6 5 4 3 3 4 5 5 5 6 7 6 5 4 3 3 3 4 5 4 3 3 2 2 2 3 4 4 4 5 6 8 10 10 10 11 12 12 12
9 7 7 7 6 5 4 4 4 5 5 4 4 5 7 7 6 4 3 3 4 5 4 3 2 2 2 2 2 2 3 4 4 4 6 6 7 9 9 9 10 10 10
9 8 7 7 6 5 4 4 3 4 4 4 4 4 6 7 7 4 3 3 4 4 3 2 2 2 1 2 1 1 1 2 3 4 5 6 6 6 7 7 7 8 9
10 9 7 6 6 5 5 4 3 4 3 3 4 4 5 6 6 5 3 3 4 3 2 2 2 3 2 2 2 1 1 2 2 3 4 5 6 6 6 6 6 7 8
9 9 7 6 6 5 4 3 2 3 2 2 2 4 5 4 5 5 3 3 4 3 2 1 2 2 2 2 1 0 0 1 1 2 3 3 5 6 7 6 6 5 7
8 8 8 7 6 4 3 3 3 2 1 1 1 3 5 5 5 5 3 3 3 3 3 3 2 2 1 2 2 1 2 2 1 1 1 2 3 5 6 6 6 5 5
10 9 8 8 7 6 4 4 3 3 2 2 1 2 4 4 5 5 4 3 3 3 3 2 2 1 1 2 3 2 1 3 2 1 1 2 2 3 4 5 5 5 5
12 11 10 9 7 6 5 4 3 2 2 1 1 1 1 4 4 4 4 4 3 3 3 2 2 3 2 1 2 3 3 3 2 2 1 1 1 1 2 3 4 5 6
13 11 9 9 8 6 6 6 6 4 4 3 3 2 2 3 4 4 4 4 4 3 3 3 2 2 3 1 0 1 2 3 2 1 2 1 0 1 1 2 3 5 6
13 12 10 9 8 7 7 7 7 5 3 3 3 3 2 1 2 4 4 4 3 3 3 3 2 2 2 2 2 1 1 1 2 2 1 2 2 1 2 2 2 4 5
12 11 10 10 8 7 7 7 7 7 5 5 4 4 3 1 1 2 3 3 3 3 3 3 3 3 2 2 2 2 2 2 2 2 2 2 2 2 2 2 2 3 4
Wind_Direction
132 126 107 97 95 96 98 98 98 100 102 103 106 111 114 114 115 117 120 124 125 125 125 125 124 124 124 123 122 120 122 123 123 123 125 126 126 124 122 121 119 116 119
147 128 109 100 99 100 101 101 102 103 104 106 110 113 116 118 118 120 122 125 125 126 127 126 127 127 127 126 124 123 123 125 124 123 124 124 126 127 125 125 123 122 123
130 128 115 103 100 103 105 105 105 105 105 107 110 114 117 120 119 120 121 125 127 127 128 129 129 129 128 127 126 125 124 124 126 123 121 118 123 127 129 128 127 128 126
129 127 118 109 104 105 108 108 108 106 106 109 113 117 118 122 123 122 123 126 128 128 129 130 130 129 127 127 126 125 125 126 126 125 122 124 127 131 131 131 131 131 131
121 125 123 116 111 110 112 112 112 111 110 112 115 118 119 122 124 124 125 127 129 130 132 132 130 130 131 131 131 129 128 129 129 121 119 124 129 135 136 136 135 136 137
126 129 128 122 119 117 116 115 114 114 114 114 117 118 120 122 124 125 126 127 130 133 135 133 133 135 136 136 135 133 134 134 125 120 126 128 136 141 143 142 143 144 145
135 135 132 128 125 124 123 121 119 118 118 117 116 116 118 120 123 124 125 129 135 139 139 138 137 138 138 137 137 138 140 138 125 123 128 134 142 146 148 148 149 151 150
137 135 134 133 131 128 128 127 123 122 121 119 119 119 119 120 122 124 127 132 138 144 145 144 143 143 141 140 140 138 142 137 133 131 133 141 147 150 153 153 155 157 157
134 131 131 135 136 134 132 132 130 128 126 126 124 124 124 125 126 126 129 135 140 144 147 150 150 150 149 148 144 140 139 138 134 142 146 152 155 153 155 158 162 160 159
127 132 136 136 136 137 138 141 139 136 134 133 130 129 130 130 133 133 132 133 140 146 149 156 159 158 158 156 152 147 143 142 144 157 160 167 167 164 164 165 164 166 169
126 132 138 141 145 145 144 145 146 144 144 143 141 138 135 133 137 141 142 139 143 152 158 163 169 171 173 170 162 154 150 150 149 162 172 176 172 172 174 175 175 173 175
141 146 144 147 151 154 153 145 151 152 151 151 149 147 146 148 151 151 154 155 156 160 166 172 179 179 182 176 165 163 157 161 165 172 181 184 181 181 182 182 183 181 181
150 147 147 148 152 149 143 148 157 157 162 163 167 166 158 156 159 159 163 167 167 164 168 175 193 194 186 184 178 170 167 168 166 182 187 188 187 189 191 191 191 188 187
143 149 149 147 146 146 146 152 159 156 162 172 176 171 159 156 161 159 162 173 176 178 174 188 196 189 185 187 180 169 168 177 175 185 191 194 194 196 197 197 199 197 197
142 146 146 143 143 149 140 151 151 158 167 174 170 175 169 164 167 173 179 183 191 185 180 180 188 179 180 184 178 169 172 172 182 189 194 197 197 197 199 202 203 204 207
149 148 146 142 143 141 140 146 154 170 170 165 175 179 172 171 172 175 176 183 196 197 194 186 182 180 182 169 168 172 177 179 185 184 188 196 201 202 205 208 206 209 211
152 151 151 147 138 139 143 151 157 166 162 161 172 175 174 171 170 172 172 180 192 188 179 167 164 151 158 157 169 195 185 180 184 182 184 193 201 208 211 213 211 210 211
152 154 162 151 144 146 144 138 143 154 156 162 167 168 179 176 167 166 163 180 183 165 159 151 141 138 149 150 166 191 186 178 187 182 185 191 195 200 202 203 208 211 210
158 157 161 154 154 152 145 139 134 138 144 161 157 164 175 177 171 165 165 173 162 143 142 166 148 158 162 163 175 190 194 192 200 190 187 189 193 195 190 196 204 209 215
161 160 160 156 160 150 137 124 111 104 116 143 151 162 165 167 162 152 154 150 140 131 136 152 158 160 169 181 175 114 343 218 206 211 211 191 191 192 187 187 192 207 215
161 160 161 159 165 152 139 140 139 149 151 135 157 155 153 153 147 141 138 140 139 144 161 160 148 142 150 131 96 33 357 340 267 243 222 187 192 197 192 191 196 201 206
173 169 167 169 170 167 166 165 161 158 167 160 142 135 146 141 144 148 141 145 142 138 136 143 133 138 173 142 137 115 20 341 324 296 224 186 198 193 194 204 199 196 199
178 178 177 176 170 168 160 139 127 98 80 78 113 138 147 145 147 148 145 142 140 141 156 164 156 156 176 208 146 146 155 218 286 319 297 147 151 182 207 194 195 204 205
183 180 175 173 170 168 158 150 150 155 166 190 178 169 171 153 147 149 145 146 148 150 160 179 166 162 150 169 239 189 170 163 161 305 330 336 208 201 219 218 204 207 206
182 179 175 171 173 171 164 163 162 165 175 171 157 154 169 172 153 156 151 147 151 159 167 162 148 145 150 161 170 171 146 132 136 154 267 307 322 270 236 234 218 202 202
179 177 174 172 180 178 171 167 168 167 164 156 164 170 180 181 174 166 152 152 163 165 169 171 167 155 163 159 160 156 154 159 185 171 204 245 263 275 258 241 211 198 197
Height
1516 1514 1513 1512 1511 1510 1510 1510 1509 1509 1509 1509 1510 1511 1512 1513 1515 1516 1518 1520 1522 1523 1525 1527 1529 1531 1533 1535 1536 1538 1540 1541 1543 1544 1546 1547 1548 1549 1550 1551 1552 1552 1553
1516 1515 1514 1513 1511 1511 1510 1510 1510 1510 1510 1511 1511 1512 1513 1515 1517 1519 1520 1522 1524 1525 1527 1529 1531 1533 1534 1536 1538 1539 1541 1542 1544 1545 1547 1548 1549 1550 1551 1552 1553 1553 1554
1517 1516 1515 1514 1512 1511 1511 1511 1511 1512 1512 1512 1512 1513 1514 1516 1518 1520 1522 1524 1526 1527 1529 1531 1533 1534 1536 1538 1539 1541 1542 1544 1545 1547 1548 1549 1550 1551 1552 1552 1553 1554 1555
1518 1517 1516 1515 1513 1512 1512 1512 1512 1513 1513 1513 1514 1515 1516 1518 1520 1522 1524 1526 1527 1529 1531 1533 1534 1536 1537 1539 1541 1542 1544 1545 1546 1548 1549 1550 1551 1551 1552 1553 1554 1555 1556
1519 1519 1518 1517 1516 1514 1514 1514 1514 1515 1515 1515 1516 1517 1518 1520 1522 1524 1526 1528 1529 1531 1533 1534 1536 1537 1539 1541 1542 1544 1545 1546 1547 1548 1549 1550 1551 1552 1553 1554 1555 1556 1556
1520 1520 1520 1520 1519 1518 1517 1517 1517 1518 1518 1518 1518 1519 1520 1522 1524 1526 1528 1529 1531 1532 1534 1536 1537 1539 1540 1542 1543 1545 1546 1547 1548 1549 1550 1551 1552 1553 1554 1554 1555 1556 1557
1521 1522 1522 1522 1521 1521 1521 1521 1521 1521 1521 1521 1522 1522 1523 1525 1527 1528 1529 1531 1532 1533 1535 1537 1538 1540 1542 1543 1545 1546 1547 1548 1549 1549 1550 1551 1552 1553 1554 1555 1555 1556 1557
1523 1524 1524 1524 1524 1524 1524 1524 1524 1524 1525 1525 1525 1526 1527 1528 1529 1530 1531 1531 1532 1533 1535 1538 1540 1542 1543 1544 1546 1547 1548 1549 1549 1550 1551 1552 1553 1554 1555 1555 1556 1556 1557
1525 1526 1526 1526 1526 1526 1526 1526 1527 1527 1527 1528 1528 1529 1530 1531 1532 1532 1532 1531 1532 1534 1536 1539 1541 1543 1544 1546 1547 1548 1549 1550 1550 1551 1552 1552 1553 1554 1555 1555 1555 1557 1558
1527 1528 1528 1528 1528 1529 1529 1529 1529 1530 1530 1531 1531 1532 1533 1533 1534 1534 1534 1533 1533 1535 1538 1541 1543 1544 1546 1547 1548 1549 1550 1550 1551 1552 1552 1553 1553 1554 1555 1555 1556 1557 1558
1529 1529 1529 1530 1530 1530 1531 1531 1532 1532 1532 1533 1533 1534 1535 1536 1536 1536 1537 1537 1537 1539 1541 1542 1544 1545 1547 1548 1549 1549 1550 1551 1551 1552 1553 1553 1553 1554 1554 1555 1556 1557 1558
1529 1530 1531 1531 1531 1532 1532 1533 1533 1534 1534 1535 1536 1536 1537 1537 1538 1538 1539 1540 1540 1541 1543 1544 1545 1547 1548 1548 1549 1550 1551 1551 1552 1552 1552 1553 1553 1553 1554 1555 1555 1556 1557
1530 1531 1532 1533 1533 1533 1534 1534 1535 1535 1536 1536 1537 1537 1538 1539 1539 1540 1540 1541 1542 1543 1544 1545 1546 1547 1548 1549 1550 1550 1551 1551 1552 1552 1552 1553 1553 1553 1554 1554 1555 1556 1557
1530 1532 1533 1533 1534 1534 1535 1535 1536 1536 1537 1537 1538 1538 1539 1540 1540 1541 1541 1542 1543 1544 1545 1546 1547 1548 1548 1549 1550 1551 1551 1551 1552 1552 1552 1552 1552 1553 1553 1554 1554 1555 1556
1531 1532 1533 1534 1535 1535 1536 1536 1537 1537 1537 1538 1538 1539 1539 1540 1541 1541 1542 1543 1544 1545 1546 1546 1547 1548 1548 1549 1550 1550 1551 1551 1551 1551 1551 1551 1551 1552 1552 1552 1553 1553 1555
1532 1533 1534 1535 1536 1536 1537 1537 1537 1538 1538 1538 1538 1539 1539 1540 1541 1542 1543 1544 1544 1545 1546 1547 1547 1548 1548 1549 1549 1550 1550 1550 1550 1550 1550 1550 1551 1551 1551 1551 1551 1552 1553
1532 1533 1534 1535 1536 1537 1537 1538 1538 1538 1538 1538 1538 1539 1539 1540 1541 1542 1543 1544 1544 1545 1546 1547 1547 1548 1548 1549 1549 1549 1550 1550 1550 1550 1550 1550 1550 1550 1550 1550 1550 1550 1551
1532 1533 1534 1536 1536 1537 1537 1538 1538 1539 1539 1538 1538 1538 1539 1540 1541 1542 1542 1543 1544 1545 1546 1547 1547 1547 1548 1548 1548 1549 1549 1549 1549 1549 1549 1549 1549 1548 1548 1548 1549 1549 1550
1531 1533 1534 1535 1536 1537 1538 1538 1539 1539 1539 1539 1539 1538 1538 1539 1540 1541 1542 1543 1544 1545 1545 1546 1546 1547 1547 1547 1548 1548 1548 1548 1548 1548 1548 1548 1548 1547 1547 1547 1548 1548 1548
1531 1533 1534 1535 1536 1537 1538 1538 1539 1539 1539 1539 1539 1539 1539 1539 1540 1541 1542 1543 1543 1544 1545 1545 1545 1546 1546 1547 1547 1547 1547 1548 1547 1547 1547 1547 1547 1546 1546 1546 1547 1547 1547
1531 1532 1533 1534 1535 1536 1537 1537 1538 1538 1539 1539 1539 1539 1539 1539 1540 1541 1541 1542 1543 1543 1544 1545 1545 1545 1546 1546 1546 1546 1547 1547 1547 1547 1546 1546 1546 1546 1546 1546 1546 1546 1545
1529 1531 1532 1533 1534 1535 1536 1537 1538 1538 1539 1539 1539 1540 1540 1540 1540 1540 1541 1541 1542 1543 1543 1544 1544 1544 1545 1545 1545 1545 1546 1547 1546 1546 1546 1545 1545 1545 1545 1545 1545 1544 1544
1526 1528 1530 1532 1533 1534 1535 1536 1537 1538 1538 1538 1539 1539 1539 1540 1540 1540 1540 1541 1541 1542 1542 1543 1543 1543 1543 1544 1544 1545 1544 1544 1545 1545 1545 1545 1544 1544 1544 1544 1544 1544 1544
1524 1526 1528 1530 1532 1533 1534 1535 1536 1536 1536 1537 1538 1539 1539 1539 1539 1540 1540 1540 1541 1541 1541 1541 1542 1542 1542 1542 1543 1543 1544 1543 1544 1544 1544 1544 1544 1543 1543 1543 1543 1543 1543
1522 1524 1526 1529 1530 1532 1533 1534 1535 1535 1536 1537 1537 1538 1539 1539 1539 1539 1540 1540 1540 1540 1540 1540 1541 1541 1541 1541 1542 1542 1542 1542 1542 1542 1542 1543 1543 1542 1542 1542 1542 1541 1542
1520 1522 1524 1526 1528 1530 1531 1532 1533 1534 1535 1536 1536 1537 1538 1538 1538 1539 1539 1539 1539 1539 1539 1540 1540 1540 1540 1540 1540 1541 1541 1541 1541 1541 1541 1541 1541 1541 1541 1541 1540 1540 1540